Volver al catálogo

STARLINK-3330

ActivoComunicacionesVLEO
NORAD 50836·PAYLOAD·🇺🇸 United States

Lanzado Jan 6, 2022 desde Cape Canaveral Space Force Station

Loading…

Próximos Pases (próximas 24 horas)

TLE

ActualizadoSource: CelesTrak SupGP

Época: Sep 14, 2026, 14:20 UTC

1 50836C 22001AK  26257.59770833 -.00027434  00000+0 -88226-3 0  2578
2 50836  53.1589  37.2568 0001201  86.0632  80.6416 15.31713461    13

Sigue STARLINK-3330 en tiempo real con AllMySat

Download on the App Store